Wisconsin Dells, Wisconsin, United States (53965)
Lat: 43.63N, Lon: 89.77W
Wx Zone: WIZ057
Local Info
Past Weather Observations for Sunday, April 24, 2016

NOTE: This archive is for the closest National Weather Service station to Wisconsin Dells. Information may differ from the station used for current weather conditions.

Click here for Long-term Archive

Time Weather Temperature Dewpoint Humidity Pressure Winds Precip Visibility
23:55
Clear
48°F / 9°C 43°F / 6°C 82% 29.77 in
(1008 mb)
ENE 9.2 mph
(ENE 15 kph)
- 10SM
23:35
Clear
48°F / 9°C 43°F / 6°C 82% 29.77 in
(1008 mb)
ENE 9.2 mph
(ENE 15 kph)
- 10SM
23:15
Clear
50°F / 10°C 43°F / 6°C 76% 29.77 in
(1008 mb)
ENE 4.6 mph
(ENE 7 kph)
- 10SM
22:55
Clear
50°F / 10°C 43°F / 6°C 76% 29.77 in
(1008 mb)
ENE 8.1 mph
(ENE 13 kph)
- 10SM
22:35
Clear
52°F / 11°C 43°F / 6°C 72% 29.77 in
(1008 mb)
E 9.2 mph
(E 15 kph)
- 10SM
22:15
Partly Cloudy
52°F / 11°C 43°F / 6°C 72% 29.8 in
(1009 mb)
E 9.2 mph
(E 15 kph)
- 10SM
21:55
Mostly Cloudy
52°F / 11°C 43°F / 6°C 72% 29.8 in
(1009 mb)
E 11.5 mph
(E 19 kph)
- 10SM
21:35
Clear
52°F / 11°C 45°F / 7°C 77% 29.8 in
(1009 mb)
ENE 8.1 mph
(ENE 13 kph)
- 10SM
21:15
Partly Cloudy
54°F / 12°C 45°F / 7°C 72% 29.8 in
(1009 mb)
E 9.2 mph
(E 15 kph)
- 10SM
20:55
Partly Cloudy
55°F / 13°C 45°F / 7°C 67% 29.8 in
(1009 mb)
E 8.1 mph
(E 13 kph)
- 10SM
20:35
Partly Cloudy
55°F / 13°C 46°F / 8°C 72% 29.8 in
(1009 mb)
E 9.2 mph
(E 15 kph)
- 10SM
20:15
Clear
55°F / 13°C 46°F / 8°C 72% 29.8 in
(1009 mb)
ENE 10.4 mph
(ENE 17 kph)
- 10SM
19:55
Clear
57°F / 14°C 46°F / 8°C 67% 29.8 in
(1009 mb)
E 10.4 mph
(E 17 kph)
- 10SM
19:35
Clear
57°F / 14°C 46°F / 8°C 67% 29.77 in
(1008 mb)
E 12.7 mph
(E 20 kph)
- 10SM
19:15
Partly Cloudy
57°F / 14°C 46°F / 8°C 67% 29.77 in
(1008 mb)
E 11.5 mph
(E 19 kph)
- 10SM
18:55
Partly Cloudy
59°F / 15°C 46°F / 8°C 63% 29.77 in
(1008 mb)
E 13.8 mph
(E 22 kph)
- 10SM
18:35
Clear
61°F / 16°C 46°F / 8°C 59% 29.77 in
(1008 mb)
E 10.4 mph
(E 17 kph)
- 10SM
18:15
Clear
61°F / 16°C 46°F / 8°C 59% 29.77 in
(1008 mb)
E 12.7 mph
(E 20 kph)
- 10SM
17:55
Clear
63°F / 17°C 46°F / 8°C 56% 29.77 in
(1008 mb)
E 10.4 mph
(E 17 kph)
- 10SM
17:35
Clear
63°F / 17°C 48°F / 9°C 59% 29.8 in
(1009 mb)
E 10.4 mph
(E 17 kph)
- 10SM
17:15
Clear
64°F / 18°C 48°F / 9°C 56% 29.8 in
(1009 mb)
E 12.7 mph
(E 20 kph)
- 10SM
16:55
Clear
64°F / 18°C 48°F / 9°C 56% 29.8 in
(1009 mb)
E 11.5 mph
(E 19 kph)
- 10SM
16:35
Clear
64°F / 18°C 50°F / 10°C 60% 29.8 in
(1009 mb)
E 12.7 mph
(E 20 kph)
- 10SM
16:15
Clear
64°F / 18°C 50°F / 10°C 60% 29.8 in
(1009 mb)
E 11.5 mph
(E 19 kph)
- 10SM
15:55
Clear
64°F / 18°C 50°F / 10°C 60% 29.8 in
(1009 mb)
E 13.8 mph
(E 22 kph)
- 10SM
15:35
Clear
64°F / 18°C 50°F / 10°C 60% 29.8 in
(1009 mb)
E 13.8 mph
(E 22 kph)
- 10SM
15:15
Clear
64°F / 18°C 50°F / 10°C 60% 29.8 in
(1009 mb)
E 15 mph
(E 24 kph)
- 10SM
14:55
Clear
64°F / 18°C 50°F / 10°C 60% 29.83 in
(1010 mb)
E 15 mph
(E 24 kph)
- 10SM
14:35
Clear
64°F / 18°C 50°F / 10°C 60% 29.83 in
(1010 mb)
E 13.8 mph
(E 22 kph)
- 10SM
14:15
Clear
64°F / 18°C 50°F / 10°C 60% 29.86 in
(1011 mb)
ENE 11.5 mph
(ENE 19 kph)
- 10SM
13:55
Partly Cloudy
64°F / 18°C 50°F / 10°C 60% 29.86 in
(1011 mb)
E 11.5 mph
(E 19 kph)
- 10SM
13:35
Partly Cloudy
63°F / 17°C 48°F / 9°C 59% 29.89 in
(1012 mb)
E 11.5 mph
(E 19 kph)
- 10SM
13:15
Partly Cloudy
63°F / 17°C 48°F / 9°C 59% 29.89 in
(1012 mb)
ENE 10.4 mph
(ENE 17 kph)
- 10SM
12:55
Clear
61°F / 16°C 48°F / 9°C 63% 29.89 in
(1012 mb)
NE 9.2 mph
(NE 15 kph)
- 10SM
12:35
Partly Cloudy
59°F / 15°C 48°F / 9°C 68% 29.89 in
(1012 mb)
E 11.5 mph
(E 19 kph)
- 10SM
12:15
Mostly Cloudy
59°F / 15°C 46°F / 8°C 63% 29.92 in
(1013 mb)
E 10.4 mph
(E 17 kph)
- 10SM
11:55
Mostly Cloudy
59°F / 15°C 46°F / 8°C 63% 29.92 in
(1013 mb)
E 8.1 mph
(E 13 kph)
- 10SM
11:35
Overcast
57°F / 14°C 46°F / 8°C 67% 29.92 in
(1013 mb)
E 5.8 mph
(E 9 kph)
- 10SM
11:15
Overcast
57°F / 14°C 46°F / 8°C 67% 29.92 in
(1013 mb)
E 5.8 mph
(E 9 kph)
- 10SM
10:55
Overcast
57°F / 14°C 45°F / 7°C 63% 29.92 in
(1013 mb)
E 6.9 mph
(E 11 kph)
- 10SM
10:35
Overcast
57°F / 14°C 46°F / 8°C 67% 29.92 in
(1013 mb)
E 4.6 mph
(E 7 kph)
- 10SM
10:15
Overcast
55°F / 13°C 45°F / 7°C 67% 29.92 in
(1013 mb)
SE 5.8 mph
(SE 9 kph)
- 10SM
09:55
Overcast
55°F / 13°C 45°F / 7°C 67% 29.92 in
(1013 mb)
E 3.5 mph
(E 6 kph)
- 10SM
09:35
Overcast
Light Rain
55°F / 13°C 45°F / 7°C 67% 29.92 in
(1013 mb)
SSE 5.8 mph
(SSE 9 kph)
- 10SM
09:15
Mostly Cloudy
55°F / 13°C 45°F / 7°C 67% 29.92 in
(1013 mb)
SSE 6.9 mph
(SSE 11 kph)
- 10SM
08:55
Mostly Cloudy
57°F / 14°C 45°F / 7°C 63% 29.92 in
(1013 mb)
SSE 10.4 mph
(SSE 17 kph)
- 10SM
08:35
Overcast
57°F / 14°C 46°F / 8°C 67% 29.92 in
(1013 mb)
SE 6.9 mph
(SE 11 kph)
- 10SM
08:15
Mostly Cloudy
54°F / 12°C 45°F / 7°C 72% 29.92 in
(1013 mb)
SE 6.9 mph
(SE 11 kph)
- 10SM
07:55
Mostly Cloudy
54°F / 12°C 45°F / 7°C 72% 29.92 in
(1013 mb)
SSE 10.4 mph
(SSE 17 kph)
- 10SM
07:35
Overcast
50°F / 10°C 43°F / 6°C 76% 29.95 in
(1014 mb)
SSE 4.6 mph
(SSE 7 kph)
- 10SM
07:15
Mostly Cloudy
48°F / 9°C 43°F / 6°C 82% 29.95 in
(1014 mb)
SE 6.9 mph
(SE 11 kph)
- 10SM
06:55
Overcast
48°F / 9°C 41°F / 5°C 76% 29.95 in
(1014 mb)
SE 4.6 mph
(SE 7 kph)
- 10SM
06:35
Overcast
Light Rain
46°F / 8°C 41°F / 5°C 82% 29.95 in
(1014 mb)
SE 8.1 mph
(SE 13 kph)
- 10SM
06:15
Overcast
Light Rain
46°F / 8°C 41°F / 5°C 82% 29.95 in
(1014 mb)
SE 10.4 mph
(SE 17 kph)
- 10SM
05:55
Overcast
Light Rain
46°F / 8°C 39°F / 4°C 76% 29.98 in
(1015 mb)
SE 3.5 mph
(SE 6 kph)
- 10SM
05:35
Overcast
Light Rain
46°F / 8°C 39°F / 4°C 76% 29.98 in
(1015 mb)
SE 5.8 mph
(SE 9 kph)
- 10SM
05:15
Mostly Cloudy
Light Rain
46°F / 8°C 37°F / 3°C 71% 29.98 in
(1015 mb)
SSE 6.9 mph
(SSE 11 kph)
- 10SM
04:55
Mostly Cloudy
Drizzle
46°F / 8°C 37°F / 3°C 71% 29.98 in
(1015 mb)
SE 3.5 mph
(SE 6 kph)
- 10SM
04:35
Mostly Cloudy
45°F / 7°C 37°F / 3°C 76% 29.98 in
(1015 mb)
SE 6.9 mph
(SE 11 kph)
- 10SM
04:15
Overcast
45°F / 7°C 36°F / 2°C 71% 29.98 in
(1015 mb)
E 4.6 mph
(E 7 kph)
- 10SM
03:55
Overcast
45°F / 7°C 36°F / 2°C 71% 30.01 in
(1016 mb)
E 4.6 mph
(E 7 kph)
- 10SM
03:35
Overcast
45°F / 7°C 36°F / 2°C 71% 30.01 in
(1016 mb)
ENE 4.6 mph
(ENE 7 kph)
- 10SM
03:15
Mostly Cloudy
45°F / 7°C 36°F / 2°C 71% 30.01 in
(1016 mb)
E 5.8 mph
(E 9 kph)
- 10SM
02:55
Mostly Cloudy
45°F / 7°C 36°F / 2°C 71% 30.01 in
(1016 mb)
ENE 4.6 mph
(ENE 7 kph)
- 10SM
02:35
Mostly Cloudy
45°F / 7°C 36°F / 2°C 71% 30.01 in
(1016 mb)
SE 4.6 mph
(SE 7 kph)
- 10SM
02:15
Partly Cloudy
45°F / 7°C 36°F / 2°C 71% 30.01 in
(1016 mb)
ESE 3.5 mph
(ESE 6 kph)
- 10SM
01:55
Partly Cloudy
45°F / 7°C 36°F / 2°C 71% 30.04 in
(1017 mb)
E 3.5 mph
(E 6 kph)
- 10SM
01:35
Partly Cloudy
46°F / 8°C 37°F / 3°C 71% 30.04 in
(1017 mb)
E 4.6 mph
(E 7 kph)
- 10SM
01:15
Partly Cloudy
46°F / 8°C 36°F / 2°C 66% 30.04 in
(1017 mb)
ENE 3.5 mph
(ENE 6 kph)
- 10SM
00:55
Overcast
46°F / 8°C 37°F / 3°C 71% 30.04 in
(1017 mb)
E 5.8 mph
(E 9 kph)
- 10SM
00:35
Partly Cloudy
46°F / 8°C 36°F / 2°C 66% 30.04 in
(1017 mb)
ENE 5.8 mph
(ENE 9 kph)
- 10SM
00:15
Clear
46°F / 8°C 37°F / 3°C 71% 30.01 in
(1016 mb)
ENE 3.5 mph
(ENE 6 kph)
- 10SM
Time Weather Temperature Dewpoint Humidity Pressure Winds Precip Visibility


Weather for websites

WeatherForYou.com, LLC is not responsible for any damages or problems caused by this service. Current weather conditions are obtained from the closest station including government and personal stations which may have varying degrees of accuracy. Weather forecasts are derived from the NOAA NDFD. Like all things, this site belongs to Jesus Christ... He just trusts us to maintain it. If you have any questions or comments email webmaster@weatherforyou.com

Copyright © 2016, WeatherForYou.com LLC. All rights reserved.